User: anonymous   Login
Location: NJAA Observatory
(40.6819°N, 74.8979°W)
Time: 15:41:13
(UTC-05:00)
Language:

Meteor 1-28 Rocket - Orbit

View from above orbital plane
View from above orbital plane
View from above satellite
View from above satellite

Ground track
Ground track

The orbit data is extracted from the following two-line orbital elements,

1 10114U 77057B   17051.17238038  .00000462  00000-0  26789-4 0  9997
2 10114  97.1978 239.3666 0014443  15.1889 344.9776 15.16601787165816
Epoch (UTC): 20 February 2017 04:08:13
Eccentricity: 0.0014443
inclination: 97.1978°
perigee height: 506 km
apogee height: 526 km
right ascension of ascending node: 239.3666°
argument of perigee: 15.1889°
revolutions per day: 15.16601787
mean anomaly at epoch: 344.9776°
orbit number at epoch: 16581

The dashed part of the orbit path shows where the satellite is in the earth's shadow,  

DLR